WS Maaseik 1 Meer informatie WS Maaseik 1


WS Maaseik 2 Meer informatie WS Maaseik 2


Regen radar Meer informatie rain snow radar


Bezoek onze andere website:

Vorige versie
weerstation Maaseik


Bezoek ook eens deze sites:

Weerstation Geleen



Het weer levert geen direct gevaar op.    Er zijn geen waarschuwingen afgegeven.

15 daagse weersverwachting Silkeborg (DK)

  • Overzicht
  • Per uur
  • 15 dagen
  • Extra
  • Vergelijk
  • Kaarten
  • Dagkaart
  • Meer »
  • Info
  • Statistieken
  • Directe link
    Temp 6h Neerslag Wind  
 05:05     21:33    Daglengte: 16:28 Vandaag
20:00
16°
 
4
 05:03     21:35    Daglengte: 16:32 Morgen
02:00
11°
 
5
08:00
12°
 
6
14:00
20°
 
5
20:00
19°
 
3
 05:02     21:36    Daglengte: 16:34 Donderdag 19 Mei
02:00
14°
 
2
08:00
14°
 
1
14:00
19°
2.0 mm
2
20:00
18°
3.3 mm
2
 05:00     21:38    Daglengte: 16:38 Vrijdag 20 Mei
02:00
12°
2.1 mm
4
08:00
11°
 
2
Locatie info
Region: Midtjylland
Latitude: 56.1703°N
Longitude: 9.5528°E
19 masl
Postcode: 8600
Temp/Neerslag /Baro Onweer/Dauwpunt
    Temp Baro 1h Neerslag Dauwpunt Wind UV Bewolking  
 05:05     21:33    Daglengte: 16:28 Vandaag
17:00
17°
1022.8 hPa   5.1°
4
Windvlaag: 2.5 m/s
63%
18:00
17°
1022.7 hPa   5.4°
4
Windvlaag: 2.4 m/s
55%
19:00
17°
1022.8 hPa   5.6°
4
Windvlaag: 2.8 m/s
46%
20:00
16°
1022.8 hPa   5.5°
4
Windvlaag: 4.1 m/s
13%
21:00
14°
1023.2 hPa   5.3°
4
Windvlaag: 4.5 m/s
13%
22:00
13°
1023.4 hPa   5.5°
4
Windvlaag: 6.5 m/s
10%
23:00
12°
1023.8 hPa   5.2°
4
Windvlaag: 7.3 m/s
13%
 05:03     21:35    Daglengte: 16:32 Morgen
00:00
12°
1024.1 hPa   3.7°
4
Windvlaag: 7.3 m/s
16%
01:00
11°
1024.2 hPa   3.4°
4
Windvlaag: 7.7 m/s
58%
02:00
11°
1024.3 hPa   3.8°
5
Windvlaag: 8.6 m/s
70%
03:00
11°
1023.9 hPa   3.8°
5
Windvlaag: 9.5 m/s
76%
04:00
11°
1023.8 hPa   4.5°
6
Windvlaag: 9.5 m/s
60%
05:00
11°
1023.6 hPa   5.1°
6
Windvlaag: 9.6 m/s
77%
06:00
11°
1023.8 hPa   5.2°
6
Windvlaag: 9.3 m/s
68%
07:00
11°
1023.7 hPa   4.6°
6
Windvlaag: 8.9 m/s
71%
08:00
12°
1023.7 hPa   3.8°
6
Windvlaag: 8.8 m/s
64%
09:00
14°
1023.4 hPa   4.1°
6
Windvlaag: 8.6 m/s
55%
10:00
15°
1023.2 hPa   5.2°
5
Windvlaag: 9 m/s
44%
11:00
17°
1022.8 hPa   6.8°
5
Windvlaag: 8.7 m/s
46%
12:00
18°
1022.6 hPa   8.1°
5
Windvlaag: 8 m/s
64%
13:00
19°
1022.2 hPa   9.2°
5
Windvlaag: 8.3 m/s
48%
14:00
20°
1021.8 hPa   10.4°
5
Windvlaag: 8.3 m/s
64%
15:00
21°
1021.4 hPa   10.9°
5
Windvlaag: 8.3 m/s
66%
16:00
21°
1020.9 hPa   11.6°
5
Windvlaag: 8.1 m/s
14%
17:00
21°
1020.7 hPa   14.5°
4
Windvlaag: 7.3 m/s
19%
18:00
20°
1020.4 hPa   14.1°
4
Windvlaag: 7.4 m/s
51%
19:00
19°
1020.2 hPa   11.7°
4
Windvlaag: 6.3 m/s
70%
20:00
19°
1020.2 hPa   9.6°
3
Windvlaag: 3.9 m/s
68%
21:00
17°
1020.3 hPa   9.0°
3
Windvlaag: 3.3 m/s
49%
22:00
16°
1020.2 hPa   8.5°
3
Windvlaag: 4.1 m/s
78%
23:00
15°
1020.0 hPa   9.7°
2
Windvlaag: 4.5 m/s
65%
 05:02     21:36    Daglengte: 16:34 Donderdag 19 Mei
00:00
15°
1019.9 hPa   11.2°
2
Windvlaag: 4.8 m/s
61%
01:00
14°
1019.6 hPa   12.1°
2
Windvlaag: 4.7 m/s
73%
02:00
14°
1019.3 hPa   13.1°
2
Windvlaag: 4.3 m/s
75%
03:00
14°
1019.2 hPa   13.3°
2
Windvlaag: 4.1 m/s
68%
04:00
13°
1019.0 hPa   12.6°
2
Windvlaag: 4.1 m/s
70%
05:00
12°
1019.2 hPa   11.9°
2
Windvlaag: 3.9 m/s
69%
06:00
12°
1019.3 hPa   11.4°
1
Windvlaag: 3.6 m/s
64%
07:00
12°
1019.4 hPa   11.5°
1
Windvlaag: 2.5 m/s
69%
08:00
14°
1019.5 hPa
11%
11.9°
1
Windvlaag: 3.4 m/s
61%
09:00
16°
1019.4 hPa
11%
11.8°
2
Windvlaag: 3 m/s
17%
10:00
18°
1019.5 hPa
11%
10.9°
2
Windvlaag: 4.2 m/s
66%
11:00
20°
1018.6 hPa
24%
11.9°
2
Windvlaag: 5.2 m/s
87%
12:00
20°
1018.1 hPa
94%
8.7°
2
Windvlaag: 4.2 m/s
96%
13:00
19°
1017.5 hPa 0.8 mm
97%
6.4°
1
Windvlaag: 4.2 m/s
99%
14:00
19°
1017.2 hPa 1.1 mm
100%
5.3°
2
Windvlaag: 4 m/s
99%
15:00
19°
1016.3 hPa
100%
6.3°
3
Windvlaag: 6.4 m/s
98%
16:00
19°
1016.8 hPa 1.4 mm
100%
11.6°
2
Windvlaag: 6.5 m/s
100%
17:00
18°
1016.5 hPa 0.9 mm
100%
13.2°
3
Windvlaag: 7.7 m/s
93%
18:00
18°
1015.7 hPa
88%
13.8°
3
Windvlaag: 7.8 m/s
90%
19:00
18°
1015.3 hPa 0.6 mm
97%
12.1°
3
Windvlaag: 8.8 m/s
90%
20:00
18°
1015.5 hPa 0.4 mm
42%
11.5°
2
Windvlaag: 7.7 m/s
97%
21:00
17°
1015.8 hPa 0.5 mm
94%
11.6°
2
Windvlaag: 6.7 m/s
100%
22:00
15°
1016.3 hPa 0.6 mm
100%
12.5°
5
Windvlaag: 6.2 m/s
98%
23:00
14°
1016.5 hPa 0.9 mm
93%
12.1°
4
Windvlaag: 5 m/s
98%
 05:00     21:38    Daglengte: 16:38 Vrijdag 20 Mei
00:00
13°
1016.2 hPa
35%
11.0°
3
Windvlaag: 4.3 m/s
100%
01:00
12°
1016.6 hPa
63%
10.1°
4
Windvlaag: 3.8 m/s
96%
02:00
12°
1017.0 hPa
21%
10.4°
4
Windvlaag: 3.3 m/s
95%
03:00
11°
1017.2 hPa
21%
10.6°
4
Windvlaag: -0.2 m/s
71%
04:00
10°
1017.3 hPa
21%
9.9°
4
Windvlaag: -0.9 m/s
72%
05:00
10°
Voelt als: 7.9°
1017.6 hPa
21%
9.3°
4
Windvlaag: -0.6 m/s
61%
06:00
Voelt als: 8.4°
1018.4 hPa
21%
8.6°
2
Windvlaag: 6.9 m/s
60%
07:00
10°
Voelt als: 8.8°
1018.6 hPa
21%
8.7°
2
Windvlaag: 7.1 m/s
84%
08:00
11°
1018.5 hPa
21%
7.5°
2
Windvlaag: 6.9 m/s
88%
09:00
11°
1018.5 hPa
21%
6.4°
2
Windvlaag: 5.3 m/s
84%
10:00
13°
1018.5 hPa
21%
5.1°
3
Windvlaag: 3.9 m/s
77%
11:00
15°
1018.2 hPa
21%
4.5°
3
Windvlaag: 3.3 m/s
83%
12:00
15°
1017.7 hPa
69%
3.4°
3
Windvlaag: 3.3 m/s
79%
13:00
16°
1017.1 hPa
21%
3.6°
3
Windvlaag: 3.4 m/s
35%
14:00
17°
1016.5 hPa
21%
3.4°
3
Windvlaag: 4 m/s
18%
15:00
18°
1017.0 hPa   -34.6°
3
Windvlaag: 7 m/s
0%
Temp/Neerslag /Baro Onweer/Dauwpunt
    Temp Baro Neerslag Dauwpunt Wind Bewolking  
 05:05     21:33    Daglengte: 16:28 Vandaag
17:00
17°
1022.8 hPa   5.1°
4
63%
20:00
16°
1022.8 hPa   5.5°
4
13%
23:00
12°
1023.8 hPa   5.2°
4
13%
 05:03     21:35    Daglengte: 16:32 Morgen
02:00
11°
1024.3 hPa   3.8°
5
70%
05:00
11°
1023.6 hPa   5.1°
6
77%
08:00
12°
1023.7 hPa   3.8°
6
64%
11:00
17°
1022.8 hPa   6.8°
5
46%
14:00
20°
1021.8 hPa   10.4°
5
64%
17:00
21°
1020.7 hPa   14.5°
4
19%
20:00
19°
1020.2 hPa   9.6°
3
68%
23:00
15°
1020.0 hPa   9.7°
2
65%
 05:02     21:36    Daglengte: 16:34 Donderdag 19 Mei
02:00
14°
1019.3 hPa   13.1°
2
75%
05:00
12°
1019.2 hPa   11.9°
2
69%
08:00
14°
1019.5 hPa   11.9°
1
61%
11:00
20°
1018.6 hPa   11.9°
2
87%
14:00
19°
1017.2 hPa 2.0 mm 5.3°
2
99%
17:00
18°
1016.5 hPa 2.3 mm 13.2°
3
93%
20:00
18°
1015.5 hPa 1.0 mm 11.5°
2
97%
23:00
14°
1016.5 hPa 2.1 mm 12.1°
4
98%
 05:00     21:38    Daglengte: 16:38 Vrijdag 20 Mei
02:00
12°
1017.0 hPa   10.4°
4
95%
05:00
10°
Voelt als: 7.9°
1017.6 hPa   9.3°
4
61%
08:00
11°
1018.5 hPa   7.5°
2
88%
11:00
15°
1018.2 hPa   4.5°
3
83%
14:00
17°
1016.5 hPa   3.4°
3
18%
17:00
17°
1015.7 hPa 2.5 mm -8.8°
3
0%
20:00
13°
1014.3 hPa 2.3 mm -7.9°
2
0%
23:00
11°
1013.1 hPa 5.4 mm -8.7°
1
0%
 04:58     21:40    Daglengte: 16:42 Zaterdag 21 Mei
02:00
11°
1012.0 hPa 5.8 mm -8.8°
2
0%
05:00
10°
Voelt als: 7.9°
1012.0 hPa 5.0 mm -10.0°
3
0%
08:00
11°
1012.1 hPa 9.5 mm -10.7°
3
0%
11:00
12°
1013.1 hPa 9.5 mm -9.2°
4
0%
14:00
14°
1013.4 hPa 5.1 mm -10.1°
5
0%
17:00
15°
1015.1 hPa 5.4 mm -10.7°
5
0%
20:00
13°
1016.2 hPa 5.3 mm -9.6°
4
0%
23:00
10°
Voelt als: 8.0°
1017.3 hPa 10.5 mm -9.9°
3
0%
 04:57     21:42    Daglengte: 16:45 Zondag 22 Mei
02:00
Voelt als: 7.1°
1018.0 hPa 10.5 mm -10.5°
3
0%
05:00
Voelt als: 6.2°
1017.1 hPa 10.5 mm -11.7°
2
0%
08:00
Voelt als: 7.7°
1017.1 hPa 10.5 mm -12.1°
3
0%
11:00
12°
1016.7 hPa 10.5 mm -13.1°
3
0%
14:00
15°
1015.2 hPa 10.6 mm -12.4°
3
0%
17:00
15°
1014.8 hPa 10.6 mm -11.4°
2
0%
20:00
14°
1014.1 hPa 10.7 mm -9.5°
1
0%
23:00
11°
1014.0 hPa 5.5 mm -10.4°
1
0%
 04:55     21:43    Daglengte: 16:48 Maandag 23 Mei
02:00
10°
1013.1 hPa 10.8 mm -10.3°
1
0%
05:00
10°
1012.8 hPa 10.8 mm -10.4°
1
0%
08:00
11°
1012.1 hPa 10.8 mm -11.0°
1
0%
11:00
13°
1011.9 hPa 10.8 mm -12.5°
2
0%
14:00
16°
1011.1 hPa 5.6 mm -12.3°
3
0%
17:00
16°
1010.8 hPa 6.1 mm -10.4°
4
0%
20:00
14°
1010.6 hPa 6.2 mm -9.3°
3
0%
23:00
12°
1010.1 hPa 6.2 mm -10.8°
3
0%
 04:54     21:45    Daglengte: 16:51 Dinsdag 24 Mei
02:00
11°
1009.7 hPa 6.4 mm -9.5°
3
0%
05:00
11°
1008.8 hPa 7.0 mm -9.4°
3
0%
08:00
11°
1009.0 hPa 6.7 mm -9.3°
4
0%
11:00
13°
1009.9 hPa 7.1 mm -10.8°
5
0%
14:00
15°
1010.1 hPa 27.5 mm -12.3°
6
0%
20:00
14°
1013.0 hPa 27.7 mm -10.2°
4
0%
 04:52     21:47    Daglengte: 16:55 Woensdag 25 Mei
02:00
Voelt als: 6.1°
1015.1 hPa 27.7 mm -11.8°
3
0%
08:00
10°
Voelt als: 8.4°
1016.1 hPa 27.7 mm -13.2°
3
0%
14:00
18°
1016.1 hPa 27.7 mm -11.1°
3
0%
20:00
17°
1015.5 hPa 27.7 mm -7.7°
1
0%
 04:51     21:48    Daglengte: 16:57 Donderdag 26 Mei
02:00
11°
1015.5 hPa 27.7 mm 8.5°
3
1%
08:00
15°
1014.2 hPa 27.7 mm 10.1°
5
0%
14:00
20°
1014.3 hPa 27.7 mm 9.2°
8
1%
20:00
16°
1015.0 hPa 27.7 mm 11.1°
6
1%
 04:50     21:50    Daglengte: 17:00 Vrijdag 27 Mei
02:00
13°
1017.7 hPa 28.5 mm 11.1°
3
1%
08:00
14°
1019.8 hPa 32.9 mm 13.0°
4
1%
14:00
17°
1016.3 hPa 0.4 mm 10.1°
2
43%
20:00
14°
1016.6 hPa 0.9 mm 9.9°
2
51%
 04:48     21:51    Daglengte: 17:03 Zaterdag 28 Mei
02:00
Voelt als: 9.3°
1017.5 hPa 0.1 mm 7.5°
1
47%
08:00
13°
1017.6 hPa 0.5 mm 9.4°
1
52%
14:00
18°
1017.9 hPa 0.5 mm 11.0°
1
62%
20:00
15°
1017.2 hPa 0.5 mm 11.3°
1
66%
 04:47     21:53    Daglengte: 17:06 Zondag 29 Mei
02:00
11°
1017.0 hPa 0.6 mm 8.3°
0
57%
08:00
13°
1016.3 hPa 0.1 mm 9.8°
0
52%
14:00
18°
1016.1 hPa 0.7 mm 11.4°
1
56%
20:00
15°
1016.0 hPa 0.5 mm 10.9°
2
59%
 04:46     21:54    Daglengte: 17:08 Maandag 30 Mei
02:00
10°
1016.4 hPa 0.3 mm 8.4°
1
58%
08:00
13°
1016.5 hPa 0.8 mm 9.5°
1
55%
14:00
18°
1016.7 hPa 0.4 mm 10.6°
2
48%
20:00
14°
1015.7 hPa 0.6 mm 10.4°
2
51%
 04:45     21:56    Daglengte: 17:11 Dinsdag 31 Mei
02:00
10°
1015.7 hPa 0.2 mm 7.6°
2
47%
08:00
12°
1015.4 hPa 0.4 mm 9.0°
3
48%
14:00
16°
1016.0 hPa 0.6 mm 9.9°
3
50%
20:00
14°
1015.5 hPa 0.5 mm 9.3°
3
42%
 04:44     21:57    Daglengte: 17:13 Woensdag 01 Jun
02:00
Voelt als: 8.8°
1015.5 hPa 0.1 mm 7.1°
2
46%
08:00
12°
1015.2 hPa 0.7 mm 8.6°
2
43%
14:00
17°
1015.6 hPa 0.6 mm 9.4°
3
50%
  CAPE Lifted Index Hail Supercell Tornado SRH 3km CL BTM PRES CL TOP PRES Swiss DWD icon SMHI TS
 05:05     21:33    Daglengte: 16:28 Vandaag
17:00 0 J/kg 7.9 K 0 % 0 % 0 % 0 m²/s² 0 0 11.02 3
18:00 0 J/kg 7.7 K 0 % 0 % 0 % 0 m²/s² 0 0 10.73 2
19:00 0 J/kg 7.7 K 0 % 0 % 0 % 0 m²/s² 0 0 10.64 2
20:00 0 J/kg 7.6 K 0 % 0 % 0 % 0 m²/s² 0 0 10.48 1
21:00 0 J/kg 7.4 K 0 % 0 % 0 % 0 m²/s² 0 0 10.1 1
22:00 0 J/kg 7.9 K 0 % 0 % 0 % 0 m²/s² 0 0 10.39 1
23:00 0 J/kg 8.8 K 0 % 0 % 0 % 0 m²/s² 0 0 11.14 2
 05:03     21:35    Daglengte: 16:32 Morgen
00:00 0 J/kg 9.7 K 0 % 0 % 0 % 0 m²/s² 0 0 12.04 2
01:00 0 J/kg 11.3 K 0 % 0 % 0 % 0 m²/s² 0 0 13.58 3
02:00 0 J/kg 12.9 K 0 % 0 % 0 % 0 m²/s² 0 0 15.18 3
03:00 0 J/kg 13.1 K 0 % 0 % 0 % 0 m²/s² 0 0 15.74 3
04:00 0 J/kg 13.3 K 0 % 0 % 0 % 0 m²/s² 0 0 16.18 3
05:00 0 J/kg 12.7 K 0 % 0 % 0 % 0 m²/s² 0 0 15.67 3
06:00 0 J/kg 11.5 K 0 % 0 % 0 % 0 m²/s² 0 0 14.32 3
07:00 0 J/kg 8.3 K 0 % 0 % 0 % 0 m²/s² 0 0 10.97 3
08:00 0 J/kg 6.2 K 0 % 0 % 0 % 0 m²/s² 0 0 8.57 3
09:00 0 J/kg 5.4 K 0 % 0 % 0 % 0 m²/s² 0 0 7.95 3
10:00 0 J/kg 4.6 K 0 % 0 % 0 % 0 m²/s² 0 0 7.54 3
11:00 0 J/kg 3.5 K 0 % 0 % 0 % 0 m²/s² 0 0 6.68 2
12:00 0 J/kg 3.1 K 0 % 0 % 0 % 0 m²/s² 0 0 5.71 3
13:00 0 J/kg 4.0 K 0 % 0 % 0 % 0 m²/s² 0 0 5.98 3
14:00 0 J/kg 3.8 K 0 % 0 % 0 % 0 m²/s² 0 0 6.35 3
15:00 0 J/kg 3.2 K 0 % 0 % 0 % 0 m²/s² 0 0 4.49 3
16:00 0 J/kg 2.4 K 0 % 0 % 0 % 0 m²/s² 0 0 3.09 2
17:00 0 J/kg 1.5 K 0 % 0 % 0 % 0 m²/s² 0 0 2.91 2
18:00 0 J/kg 0.4 K 0 % 0 % 0 % 0 m²/s² 0 0 0.52 2
19:00 0 J/kg -0.4 K 0 % 0 % 0 % 0 m²/s² 0 0 0.44 3
20:00 4 J/kg -1.2 K 0 % 0 % 0 % 0 m²/s² 0 0 0.36 3
21:00 0 J/kg -1.8 K 0 % 0 % 0 % 0 m²/s² 0 0 1.86 3
22:00 0 J/kg -2.3 K 0 % 0 % 0 % 0 m²/s² 0 0 1.66 3
23:00 0 J/kg -1.9 K 0 % 0 % 0 % 0 m²/s² 0 0 3.23 3
 05:02     21:36    Daglengte: 16:34 Donderdag 19 Mei
00:00 0 J/kg -1.9 K 0 % 0 % 0 % 0 m²/s² 0 0 3.23 3
01:00 0 J/kg -2.6 K 0 % 0 % 0 % 0 m²/s² 0 0 4.39 3
02:00 0 J/kg -2.6 K 0 % 0 % 0 % 0 m²/s² 0 0 5.71 3
03:00 5 J/kg -2.7 K 0 % 0 % 0 % 0 m²/s² 0 0 6.33 3
04:00 0 J/kg -2.9 K 0 % 0 % 0 % 0 m²/s² 0 0 5.44 3
05:00 0 J/kg -2.5 K 0 % 0 % 0 % 0 m²/s² 0 0 5.51 3
06:00 0 J/kg -0.6 K 0 % 0 % 0 % 0 m²/s² 0 0 5.76 3
07:00 1 J/kg 2.0 K 0 % 0 % 0 % 0 m²/s² 0 0 6.38 3
08:00 0 J/kg 2.3 K 0 % 0 % 0 % 0 m²/s² 0 0 6.14 3
09:00 0 J/kg 3.8 K 0 % 0 % 0 % 0 m²/s² 0 0 6.92 2
10:00 0 J/kg 2.9 K 0 % 0 % 0 % 0 m²/s² 0 0 4.76 3
11:00 0 J/kg 3.4 K 0 % 0 % 0 % 0 m²/s² 0 0 4.48 3
12:00 0 J/kg 4.2 K 0 % 0 % 0 % 0 m²/s² 0 0 5.25 3
13:00 0 J/kg 4.5 K 0 % 0 % 0 % 0 m²/s² 0 0 5.58 61
14:00 0 J/kg 2.5 K 0 % 0 % 0 % 0 m²/s² 0 0 3.58 80
15:00 0 J/kg 2.3 K 0 % 0 % 0 % 0 m²/s² 0 0 3.92 80
16:00 26 J/kg 2.6 K 0 % 0 % 0 % 0 m²/s² 0 0 2.72 80
17:00 7 J/kg 3.4 K 0 % 0 % 0 % 0 m²/s² 0 0 3.7 80
18:00 2 J/kg 2.6 K 0 % 0 % 0 % 0 m²/s² 0 0 3.2 3
19:00 0 J/kg 1.8 K 0 % 0 % 0 % 0 m²/s² 0 0 1.92 80
20:00 0 J/kg 2.3 K 0 % 0 % 0 % 0 m²/s² 0 0 3.05 3
21:00 0 J/kg 2.8 K 0 % 0 % 0 % 0 m²/s² 0 0 3.49 3
22:00 0 J/kg 2.4 K 0 % 0 % 0 % 0 m²/s² 0 0 5.1 80
23:00 0 J/kg 3.6 K 0 % 0 % 0 % 0 m²/s² 0 0 6.51 80
 05:00     21:38    Daglengte: 16:38 Vrijdag 20 Mei
00:00 0 J/kg 4.5 K 0 % 0 % 0 % 0 m²/s² 0 0 8.04 3
01:00 0 J/kg 4.5 K 0 % 0 % 0 % 0 m²/s² 0 0 8.61 3
02:00 0 J/kg 5.4 K 0 % 0 % 0 % 0 m²/s² 0 0 9.51 3
03:00 1 J/kg 5.7 K 0 % 0 % 0 % 0 m²/s² 0 0 11.01 3
04:00 2 J/kg 7.6 K 0 % 0 % 0 % 0 m²/s² 0 0 12.28 3
05:00 2 J/kg 11.9 K 0 % 0 % 0 % 0 m²/s² 0 0 17.33 3
06:00 0 J/kg 12.3 K 0 % 0 % 0 % 0 m²/s² 0 0 18.03 3
07:00 0 J/kg 13.3 K 0 % 0 % 0 % 0 m²/s² 0 0 19 3
08:00 0 J/kg 12.9 K 0 % 0 % 0 % 0 m²/s² 0 0 18.75 3
09:00 0 J/kg 12.2 K 0 % 0 % 0 % 0 m²/s² 0 0 18.23 3
10:00 0 J/kg 11.6 K 0 % 0 % 0 % 0 m²/s² 0 0 17.3 3
11:00 0 J/kg 10.8 K 0 % 0 % 0 % 0 m²/s² 0 0 16.5 3
12:00 0 J/kg 10.2 K 0 % 0 % 0 % 0 m²/s² 0 0 15.45 3
13:00 0 J/kg 10.7 K 0 % 0 % 0 % 0 m²/s² 0 0 14.09 3
14:00 0 J/kg 10.3 K 0 % 0 % 0 % 0 m²/s² 0 0 12.07 2
15:00 0 J/kg 0.0 K 0 % 0 % 0 % 0 m²/s² 0 0 13.83
Temp Baro Wind Neerslag
  EWN Forecast EWN WRFDA DWD ICON FMI HIRLAM MET Norway GFSWXSIM
 05:05     21:33    Daglengte: 16:28 Vandaag
17:00 17.4° 1022.8 hPa 4.4 m/s 0.0 mm 17.8° 1022.0 hPa 4.8 m/s 0.0 mm 16.1° 1022.8 hPa 3.5 m/s -2.0 mm 18.6° 1022.7 hPa 5.3 m/s 0.0 mm 16.9° 1023.1 hPa 5.1 m/s 19.1° 1023.0 hPa 5.0 m/s 0.0 mm
20:00 15.7° 1022.8 hPa 4.5 m/s 0.0 mm 15.7° 1022.3 hPa 3.4 m/s 0.0 mm 14.4° 1022.6 hPa 2.8 m/s 0.0 mm 16.8° 1022.8 hPa 5.5 m/s 0.0 mm 14.1° 1023.4 hPa 4.1 m/s 16.1° 1024.0 hPa 4.0 m/s 0.0 mm
23:00 12.4° 1023.8 hPa 4.0 m/s 0.0 mm 10.6° 1023.2 hPa 3.8 m/s 0.0 mm 9.8° 1023.8 hPa 1.7 m/s 0.0 mm 13.7° 1023.7 hPa 4.4 m/s 0.0 mm 9.0° 1024.6 hPa 3.7 m/s 9.8° 1024.0 hPa 3.0 m/s 0.0 mm
 05:03     21:35    Daglengte: 16:32 Morgen
02:00 11.3° 1024.3 hPa 5.0 m/s 0.0 mm 9.9° 1023.7 hPa 5.0 m/s 0.0 mm 8.6° 1024.5 hPa 2.3 m/s 0.0 mm 12.1° 1023.7 hPa 5.5 m/s 0.0 mm 8.9° 1024.6 hPa 5.1 m/s 8.0° 1024.0 hPa 4.0 m/s 0.0 mm
05:00 10.8° 1023.6 hPa 5.9 m/s 0.0 mm 9.2° 1023.3 hPa 5.2 m/s 0.0 mm 8.9° 1023.7 hPa 3.1 m/s 0.0 mm 11.3° 1023.1 hPa 6.4 m/s 0.0 mm 9.5° 1023.5 hPa 5.7 m/s 7.6° 1024.0 hPa 4.0 m/s 0.0 mm
08:00 12.2° 1023.7 hPa 5.8 m/s 0.0 mm 12.7° 1023.7 hPa 7.1 m/s 0.0 mm 11.8° 1023.9 hPa 3.7 m/s 0.0 mm 13.8° 1022.4 hPa 7.3 m/s 0.0 mm 12.1° 1023.2 hPa 6.2 m/s 11.0° 1023.0 hPa 5.0 m/s 0.0 mm
11:00 16.5° 1022.8 hPa 5.0 m/s 0.0 mm 16.6° 1022.7 hPa 7.1 m/s 0.0 mm 16.3° 1023.0 hPa 4.1 m/s 0.0 mm 17.8° 1021.1 hPa 7.0 m/s 0.0 mm 17.2° 1022.0 hPa 6.1 m/s 17.6° 1023.0 hPa 6.0 m/s 0.0 mm
14:00 20.4° 1021.8 hPa 5.0 m/s 0.0 mm 19.3° 1022.1 hPa 6.4 m/s 0.0 mm 19.6° 1022.2 hPa 4.0 m/s 0.0 mm 20.9° 1019.5 hPa 7.6 m/s 0.0 mm 20.9° 1021.4 hPa 5.0 m/s 20.0° 1021.0 hPa 5.0 m/s 0.0 mm
17:00 20.8° 1020.7 hPa 4.0 m/s 0.0 mm 21.3° 1021.1 hPa 6.4 m/s 0.0 mm 20.8° 1021.1 hPa 3.8 m/s 0.0 mm 19.3° 1018.7 hPa 4.3 m/s 0.0 mm 20.5° 1020.2 hPa 5.1 m/s 18.7° 1020.0 hPa 4.0 m/s 0.8 mm
20:00 18.5° 1020.2 hPa 3.1 m/s 0.0 mm 20.5° 1020.1 hPa 3.9 m/s 0.0 mm 18.7° 1020.2 hPa 2.6 m/s 0.0 mm 17.6° 1019.8 hPa 6.3 m/s 0.0 mm 17.0° 1020.4 hPa 2.9 m/s 15.6° 1021.0 hPa 3.0 m/s 0.5 mm
23:00 15.2° 1020.0 hPa 2.5 m/s 0.0 mm 17.1° 1019.1 hPa 3.9 m/s 0.0 mm 15.4° 1019.8 hPa 1.6 m/s 0.0 mm 12.4° 1021.7 hPa 2.3 m/s 0.0 mm 12.8° 1020.7 hPa 2.0 m/s 12.6° 1021.0 hPa 2.0 m/s 0.2 mm
 05:02     21:36    Daglengte: 16:34 Donderdag 19 Mei
02:00 14.1° 1019.3 hPa 2.3 m/s 0.0 mm 17.0° 1018.8 hPa 4.0 m/s 0.0 mm 14.5° 1018.9 hPa 0.9 m/s 0.0 mm 9.8° 1022.0 hPa 2.8 m/s 0.0 mm 11.4° 1020.3 hPa 1.5 m/s 10.8° 1020.0 hPa 1.0 m/s 0.0 mm
05:00 12.1° 1019.2 hPa 1.8 m/s 0.0 mm 14.2° 1018.2 hPa 2.2 m/s 0.1 mm 12.0° 1019.0 hPa 1.3 m/s 0.0 mm 9.0° 1022.3 hPa 1.8 m/s 0.0 mm 10.1° 1019.7 hPa 1.2 m/s 9.2° 1020.0 hPa 1.0 m/s 0.0 mm
08:00 13.9° 1019.5 hPa 1.3 m/s 0.0 mm 15.0° 1018.7 hPa 3.4 m/s 0.1 mm 14.0° 1019.4 hPa 1.0 m/s 0.0 mm 11.5° 1021.8 hPa 0.9 m/s 0.0 mm 13.5° 1019.7 hPa 1.0 m/s 10.6° 1020.0 hPa 1.0 m/s 0.0 mm
11:00 19.8° 1018.6 hPa 1.9 m/s 0.0 mm 19.6° 1018.6 hPa 1.2 m/s 0.1 mm 18.5° 1019.8 hPa 1.9 m/s 0.0 mm 17.6° 1019.4 hPa 1.3 m/s 15.9° 1020.0 hPa 1.0 m/s 0.0 mm
14:00 19.0° 1017.2 hPa 2.1 m/s 2.0 mm 21.8° 1016.8 hPa 2.3 m/s 0.1 mm 15.1° 1019.1 hPa 1.3 m/s 2.2 mm 18.8° 1018.3 hPa 1.4 m/s 17.9° 1018.0 hPa 2.0 m/s 0.0 mm
17:00 18.1° 1016.5 hPa 2.5 m/s 2.3 mm 18.3° 1016.5 hPa 2.9 m/s 1.3 mm 14.5° 1018.4 hPa 0.1 m/s 5.3 mm 12.6° 1018.2 hPa 3.1 m/s 15.8° 1018.0 hPa 2.0 m/s 0.5 mm
20:00 17.7° 1015.5 hPa 2.3 m/s 1.0 mm 17.8° 1015.1 hPa 2.1 m/s 3.1 mm 13.9° 1018.2 hPa 1.2 m/s 0.4 mm 11.2° 1018.8 hPa 3.8 m/s 13.5° 1019.0 hPa 3.0 m/s 0.5 mm
23:00 13.6° 1016.5 hPa 4.4 m/s 2.1 mm 12.1° 1016.7 hPa 4.9 m/s 3.2 mm 13.2° 1018.1 hPa 1.4 m/s 1.3 mm 9.4° 1018.9 hPa 2.0 m/s 10.7° 1019.0 hPa 2.0 m/s 0.0 mm
 05:00     21:38    Daglengte: 16:38 Vrijdag 20 Mei
02:00 11.8° 1017.0 hPa 4.5 m/s 0.0 mm 11.0° 1016.8 hPa 4.5 m/s 3.3 mm 11.9° 1018.4 hPa 2.2 m/s 0.0 mm 10.0° 1019.3 hPa 2.4 m/s 9.1° 1019.0 hPa 2.0 m/s 0.0 mm
05:00 9.8° 1017.6 hPa 3.7 m/s 0.0 mm 8.5° 1017.6 hPa 4.0 m/s 3.3 mm 9.4° 1018.4 hPa 1.1 m/s 0.0 mm 8.8° 1019.3 hPa 2.5 m/s 8.8° 1019.0 hPa 2.0 m/s 0.0 mm
08:00 10.6° 1018.5 hPa 2.5 m/s 0.0 mm 10.2° 1017.6 hPa 3.0 m/s 3.3 mm 10.7° 1018.8 hPa 2.3 m/s 0.0 mm 10.9° 1019.9 hPa 2.9 m/s 9.5° 1020.0 hPa 2.0 m/s 0.0 mm
11:00 14.5° 1018.2 hPa 2.7 m/s 0.0 mm 15.8° 1017.3 hPa 2.2 m/s 3.3 mm 14.2° 1018.4 hPa 2.8 m/s 0.0 mm 15.1° 1019.1 hPa 2.3 m/s 14.8° 1020.0 hPa 3.0 m/s 0.0 mm
14:00 17.2° 1016.5 hPa 2.9 m/s 0.0 mm 18.4° 1015.8 hPa 2.6 m/s 3.3 mm 16.9° 1016.7 hPa 2.9 m/s 0.1 mm 17.4° 1017.6 hPa 2.2 m/s 17.6° 1018.0 hPa 3.0 m/s 0.0 mm
17:00 16.5° 1015.7 hPa 3.2 m/s 2.5 mm 16.1° 1015.6 hPa 4.0 m/s 2.5 mm 17.9° 1016.0 hPa 3.0 m/s 0.0 mm
20:00 13.4° 1014.3 hPa 2.1 m/s 2.3 mm 13.3° 1014.0 hPa 2.2 m/s 3.8 mm 13.6° 1015.0 hPa 2.0 m/s 0.8 mm
23:00 11.1° 1013.1 hPa 1.2 m/s 5.4 mm 11.3° 1013.3 hPa 1.7 m/s 7.7 mm 11.0° 1013.0 hPa 1.0 m/s 3.1 mm
 04:58     21:40    Daglengte: 16:42 Zaterdag 21 Mei
02:00 10.9° 1012.0 hPa 2.3 m/s 5.8 mm 11.2° 1012.2 hPa 3.2 m/s 9.4 mm 10.8° 1012.0 hPa 2.0 m/s 2.2 mm
05:00 9.6° 1012.0 hPa 3.2 m/s 5.0 mm 9.3° 1012.1 hPa 3.7 m/s 9.5 mm 10.5° 1012.0 hPa 3.0 m/s 0.5 mm
08:00 10.9° 1012.1 hPa 3.3 m/s 9.5 mm 11.7° 1012.5 hPa 4.2 m/s 9.5 mm 10.6° 1012.0 hPa 3.0 m/s 0.0 mm
11:00 12.5° 1013.1 hPa 4.0 m/s 9.5 mm 12.5° 1013.4 hPa 4.2 m/s 9.5 mm 12.5° 1013.0 hPa 4.0 m/s 0.0 mm
14:00 14.3° 1013.4 hPa 5.2 m/s 5.1 mm 15.2° 1014.5 hPa 5.8 m/s 9.8 mm 14.0° 1013.0 hPa 5.0 m/s 0.3 mm
17:00 15.2° 1015.1 hPa 5.3 m/s 5.4 mm 15.2° 1015.4 hPa 6.2 m/s 10.4 mm 15.2° 1015.0 hPa 5.0 m/s 0.3 mm
20:00 13.4° 1016.2 hPa 4.2 m/s 5.3 mm 13.1° 1016.8 hPa 4.8 m/s 10.5 mm 14.3° 1016.0 hPa 4.0 m/s 0.2 mm
23:00 9.6° 1017.3 hPa 3.2 m/s 10.5 mm 9.3° 1018.1 hPa 3.6 m/s 10.5 mm 10.7° 1017.0 hPa 3.0 m/s 0.0 mm
 04:57     21:42    Daglengte: 16:45 Zondag 22 Mei
02:00 8.8° 1018.0 hPa 3.0 m/s 10.5 mm 8.5° 1018.1 hPa 3.0 m/s 10.5 mm 9.7° 1018.0 hPa 3.0 m/s 0.0 mm
05:00 7.5° 1017.1 hPa 2.2 m/s 10.5 mm 7.2° 1017.6 hPa 2.7 m/s 10.5 mm 8.6° 1017.0 hPa 2.0 m/s 0.0 mm
08:00 9.4° 1017.1 hPa 3.0 m/s 10.5 mm 11.4° 1017.3 hPa 3.2 m/s 10.5 mm 8.7° 1017.0 hPa 3.0 m/s 0.0 mm
11:00 12.0° 1016.7 hPa 3.0 m/s 10.5 mm 15.3° 1016.6 hPa 3.1 m/s 10.5 mm 10.9° 1017.0 hPa 3.0 m/s 0.0 mm
14:00 15.3° 1015.2 hPa 2.9 m/s 10.6 mm 16.9° 1015.6 hPa 2.9 m/s 10.6 mm 14.7° 1015.0 hPa 3.0 m/s 0.0 mm
17:00 15.4° 1014.8 hPa 1.9 m/s 10.6 mm 16.6° 1014.7 hPa 1.8 m/s 10.6 mm 15.0° 1015.0 hPa 2.0 m/s 0.0 mm
20:00 13.5° 1014.1 hPa 1.2 m/s 10.7 mm 13.6° 1014.2 hPa 1.7 m/s 10.7 mm 13.5° 1014.0 hPa 1.0 m/s 0.0 mm
23:00 11.2° 1014.0 hPa 1.2 m/s 5.5 mm 11.1° 1014.0 hPa 1.7 m/s 10.8 mm 11.5° 1014.0 hPa 1.0 m/s 0.3 mm
 04:55     21:43    Daglengte: 16:48 Maandag 23 Mei
02:00 10.0° 1013.1 hPa 1.2 m/s 10.8 mm 9.8° 1013.6 hPa 1.7 m/s 10.8 mm 10.6° 1013.0 hPa 1.0 m/s 0.0 mm
05:00 10.2° 1012.8 hPa 0.6 m/s 10.8 mm 10.2° 1012.7 hPa 0.5 m/s 10.8 mm 10.3° 1013.0 hPa 1.0 m/s 0.0 mm
08:00 11.1° 1012.1 hPa 1.0 m/s 10.8 mm 12.4° 1012.4 hPa 1.0 m/s 10.8 mm 10.6° 1012.0 hPa 1.0 m/s 0.0 mm
11:00 13.5° 1011.9 hPa 2.2 m/s 10.8 mm 15.4° 1011.8 hPa 2.8 m/s 10.8 mm 12.8° 1012.0 hPa 2.0 m/s 0.0 mm
14:00 16.0° 1011.1 hPa 3.1 m/s 5.6 mm 17.7° 1011.2 hPa 3.6 m/s 11.1 mm 15.4° 1011.0 hPa 3.0 m/s 0.2 mm
17:00 15.8° 1010.8 hPa 4.2 m/s 6.1 mm 16.3° 1010.8 hPa 4.7 m/s 11.8 mm 15.7° 1011.0 hPa 4.0 m/s 0.5 mm
20:00 14.2° 1010.6 hPa 3.2 m/s 6.2 mm 14.2° 1010.5 hPa 3.9 m/s 12.1 mm 14.2° 1011.0 hPa 3.0 m/s 0.3 mm
23:00 11.6° 1010.1 hPa 3.1 m/s 6.2 mm 11.3° 1010.3 hPa 3.6 m/s 12.1 mm 12.4° 1010.0 hPa 3.0 m/s 0.2 mm
 04:54     21:45    Daglengte: 16:51 Dinsdag 24 Mei
02:00 10.7° 1009.7 hPa 3.3 m/s 6.4 mm 10.4° 1009.6 hPa 4.1 m/s 12.5 mm 11.3° 1010.0 hPa 3.0 m/s 0.3 mm
05:00 10.5° 1008.8 hPa 3.2 m/s 7.0 mm 11.6° 1008.7 hPa 3.9 m/s 13.0 mm 10.2° 1009.0 hPa 3.0 m/s 1.0 mm
08:00 11.3° 1009.0 hPa 4.2 m/s 6.7 mm 13.1° 1009.1 hPa 4.7 m/s 13.1 mm 10.7° 1009.0 hPa 4.0 m/s 0.3 mm
11:00 13.3° 1009.9 hPa 5.3 m/s 7.1 mm 16.1° 1009.9 hPa 6.1 m/s 13.7 mm 12.3° 1010.0 hPa 5.0 m/s 0.5 mm
14:00 15.1° 1010.1 hPa 6.2 m/s 13.8 mm 17.9° 1010.5 hPa 7.0 m/s 13.8 mm 14.2° 1010.0 hPa 6.0 m/s 0.0 mm
20:00 13.8° 1013.0 hPa 4.2 m/s 13.8 mm 13.8° 1013.0 hPa 4.7 m/s 13.8 mm 13.8° 1013.0 hPa 4.0 m/s 0.0 mm
 04:52     21:47    Daglengte: 16:55 Woensdag 25 Mei
02:00 8.0° 1015.1 hPa 3.1 m/s 13.8 mm 7.8° 1015.5 hPa 3.2 m/s 13.8 mm 8.7° 1015.0 hPa 3.0 m/s 0.0 mm
08:00 9.9° 1016.1 hPa 3.1 m/s 13.8 mm 12.3° 1016.2 hPa 3.3 m/s 13.8 mm 9.1° 1016.0 hPa 3.0 m/s 0.0 mm
14:00 18.1° 1016.1 hPa 2.6 m/s 13.8 mm 19.4° 1016.4 hPa 2.4 m/s 13.8 mm 17.7° 1016.0 hPa 3.0 m/s 0.0 mm
20:00 17.3° 1015.5 hPa 1.3 m/s 13.8 mm 17.5° 1015.3 hPa 2.1 m/s 13.8 mm 17.2° 1016.0 hPa 1.0 m/s 0.0 mm
 04:51     21:48    Daglengte: 16:57 Donderdag 26 Mei
02:00 11.3° 1015.5 hPa 3.2 m/s 13.8 mm 11.3° 1015.5 hPa 3.2 m/s 13.8 mm
08:00 14.6° 1014.2 hPa 5.2 m/s 13.8 mm 14.6° 1014.2 hPa 5.2 m/s 13.8 mm
14:00 20.0° 1014.3 hPa 7.5 m/s 13.8 mm 20.0° 1014.3 hPa 7.5 m/s 13.8 mm
20:00 16.1° 1015.0 hPa 5.5 m/s 13.8 mm 16.1° 1015.0 hPa 5.5 m/s 13.8 mm
 04:50     21:50    Daglengte: 17:00 Vrijdag 27 Mei
02:00 12.6° 1017.7 hPa 3.3 m/s 14.7 mm 12.6° 1017.7 hPa 3.3 m/s 14.7 mm
08:00 14.3° 1019.8 hPa 4.2 m/s 16.5 mm 14.3° 1019.8 hPa 4.2 m/s 16.5 mm
14:00 17.1° 1016.3 hPa 1.9 m/s 0.4 mm
20:00 14.1° 1016.6 hPa 1.8 m/s 0.9 mm
 04:48     21:51    Daglengte: 17:03 Zaterdag 28 Mei
02:00 9.4° 1017.5 hPa 1.2 m/s 0.1 mm
08:00 12.7° 1017.6 hPa 0.8 m/s 0.5 mm
14:00 17.6° 1017.9 hPa 0.7 m/s 0.5 mm
20:00 15.2° 1017.2 hPa 0.8 m/s 0.5 mm
 04:47     21:53    Daglengte: 17:06 Zondag 29 Mei
02:00 10.9° 1017.0 hPa 0.1 m/s 0.6 mm
08:00 13.3° 1016.3 hPa 0.2 m/s 0.1 mm
14:00 17.7° 1016.1 hPa 1.1 m/s 0.7 mm
20:00 15.1° 1016.0 hPa 1.7 m/s 0.5 mm
 04:46     21:54    Daglengte: 17:08 Maandag 30 Mei
02:00 10.3° 1016.4 hPa 1.0 m/s 0.3 mm
08:00 12.7° 1016.5 hPa 1.1 m/s 0.8 mm
14:00 17.7° 1016.7 hPa 1.6 m/s 0.4 mm
20:00 14.5° 1015.7 hPa 1.9 m/s 0.6 mm
 04:45     21:56    Daglengte: 17:11 Dinsdag 31 Mei
02:00 10.0° 1015.7 hPa 2.0 m/s 0.2 mm
08:00 12.3° 1015.4 hPa 3.0 m/s 0.4 mm
14:00 16.4° 1016.0 hPa 3.4 m/s 0.6 mm
20:00 13.8° 1015.5 hPa 2.9 m/s 0.5 mm
 04:44     21:57    Daglengte: 17:13 Woensdag 01 Jun
02:00 9.5° 1015.5 hPa 1.8 m/s 0.1 mm
08:00 12.3° 1015.2 hPa 2.3 m/s 0.7 mm
14:00 16.7° 1015.6 hPa 2.7 m/s 0.6 mm
FMI Hirlam - 7.5 km EWN WRFDA - 12 km DWD ICON - 7 km GFS - 25 km Basiskaart






























































Updatetijd (Europe/Brussels) Resolutie Lengte Stap
FMI Hirlam 14:00, 20:00, 02:00, 08:00 7.5 km 49h 1h
EWN WRFDA 10:15, 16:15, 22:15, 04:15 12 km 73h 1h
DWD ICON 11:45, 17:45, 23:45, 05:45 7 km 75h 1h
GFS 14:15, 20:15, 02:15, 08:15 25 km 237h 3h
30+ mm
25-30 mm
20-25 mm
15-20 mm
10-15 mm
6-10 mm
4-6 mm
2-4 mm
1-2 mm
0.5-1 mm
0.2-0.5 mm
0.1-0.2 mm
30+ mm
25-30 mm
20-25 mm
15-20 mm
10-15 mm
6-10 mm
4-6 mm
2-4 mm
1-2 mm
0.5-1 mm
0.2-0.5 mm
0.1-0.2 mm
Sneeuwval
Natte sneeuw
Hagel
Vorst
30+ mm
25-30 mm
20-25 mm
15-20 mm
10-15 mm
6-10 mm
4-6 mm
2-4 mm
1-2 mm
0.5-1 mm
0.2-0.5 mm
0.1-0.2 mm
Sneeuwval
Natte sneeuw
Hagel
Vorst
Onweer
50 mm
40 mm
30 mm
26 mm
22 mm
18 mm
14 mm
10 mm
9 mm
8 mm
7 mm
6 mm
5 mm
4.5 mm
4 mm
3.5 mm
3 mm
2.5 mm
2 mm
1.5 mm
1 mm
0.8 mm
0.6 mm
0.4 mm
0.2 mm
0.05 mm
35°
30°
25°
20°
15°
10°
-5°
-10°
-15°
-20°
-25°
-30°
-35°
33> m/s
29 m/s
25 m/s
21 m/s
17 m/s
14 m/s
11 m/s
8 m/s
5 m/s
3 m/s
0 m/s
2600 J/kg
2400 J/kg
2200 J/kg
2000 J/kg
1800 J/kg
1600 J/kg
1400 J/kg
1200 J/kg
1000 J/kg
800 J/kg
600 J/kg
400 J/kg
200 J/kg
70 dBZ
65 dBZ
60 dBZ
55 dBZ
50 dBZ
45 dBZ
40 dBZ
35 dBZ
30 dBZ
25 dBZ
20 dBZ
15 dBZ
10 dBZ
5 dBZ
-1 K
-2 K
-3 K
-4 K
-5 K
-6 K
-7 K
-8 K
-9 K
950 m²/s²
900 m²/s²
850 m²/s²
800 m²/s²
750 m²/s²
700 m²/s²
650 m²/s²
600 m²/s²
550 m²/s²
500 m²/s²
450 m²/s²
400 m²/s²
350 m²/s²
300 m²/s²
250 m²/s²
200 m²/s²
150 m²/s²
100 m²/s²
46 m/s
44 m/s
42 m/s
40 m/s
38 m/s
36 m/s
34 m/s
32 m/s
30 m/s
28 m/s
26 m/s
24 m/s
22 m/s
20 m/s
16 m/s
12 m/s
8 m/s
4 m/s
30 m/s
28 m/s
26 m/s
24 m/s
22 m/s
20 m/s
18 m/s
16 m/s
14 m/s
12 m/s
10 m/s
8 m/s
6 m/s
4 m/s
2 m/s
3.0
2.8
2.6
2.4
2.2
2.0
1.8
1.6
1.4
1.2
1.0
0.8
0.6
0.4
0.2
15
14
13
12
11
10
9
8
7
6
5
4
3
2
1
90%
80%
70%
60%
50%
40%
30%
20%
10%
42
40
38
36
34
32
30
28
26
24
22
20
18
16
14
12
90+ cm
80-90 cm
70-80 cm
60-70 cm
50-60 cm
40-50 cm
30-40 cm
20-30 cm
10-20 cm
1-10 cm
Sneeuwval
Natte sneeuw
Regen
>120 mm
115 mm
110 mm
105 mm
100 mm
95 mm
90 mm
85 mm
80 mm
75 mm
70 mm
65 mm
60 mm
55 mm
50 mm
45 mm
45 mm
40 mm
35 mm
30 mm
25 mm
20 mm
15 mm
10 mm
5 mm
0.1 mm
960 hPa
880 hPa
800 hPa
720 hPa
640 hPa
560 hPa
584 gpdm
568 gpdm
552 gpdm
536 gpdm
520 gpdm
504 gpdm
488 gpdm
Extreem zwaar Noodweer Kans op onweer
15% 15% 5% 50% 15%

Dag




Kaart






35°
30°
25°
20°
15°
10°
-5°
-10°
-15°
-20°
-25°
-30°
-35°